Lexington Weather

Lexington, Massachusetts, USA

36°F
1/28/2020 4:26am 
  • Lexington Conditions: Overcast
  • Temperature: 36.0°F / 2.2°CColder 0.3°F than last hour.
  • Dew Point: 29.5°F 
  • Relative Humidity: 77%Increased 1.0% since last hour.
  • Wind: Wind from NNW NNW 1 mph, 10-min avg: 1 mph, gust: 3 mph
  • Barometer: 29.62 in Steady
  • Visibility: 10 miles
  • Rain Today: 0.00 in
  •   

Regional Weather Roundup
for Boston / Norton, MA

        
000
ASUS41 KBOX 280610
RWRBOX

REGIONAL WEATHER ROUNDUP
NATIONAL WEATHER SERVICE BOSTON/NORTON MA
100 AM EST TUE JAN 28 2020

NOTE:  "FAIR" INDICATES FEW OR NO CLOUDS BELOW 12,000 FEET WITH NO 
SIGNIFICANT WEATHER AND/OR OBSTRUCTIONS TO VISIBILITY.

MAZALL-280700-
EASTERN MASSACHUSETTS
  
CITY           SKY/WX    TMP DP  RH WIND       PRES   REMARKS
BOSTON         CLOUDY    41  27  57 W12       29.63S                  
6HR MIN TEMP:  41; 6HR MAX TEMP:  44;                                

BEVERLY        CLOUDY    38  28  67 W6        29.62S                  
LAWRENCE       CLOUDY    37  27  67 W5        29.64S                  
BEDFORD        CLOUDY    38  26  62 W6        29.63S                  
BLUE HILL        N/A     35  27  72 VRB7      29.60S WCI  29          
NORWOOD        CLOUDY    41  27  57 W7        29.64S                  
MARSHFIELD     CLOUDY    39  28  65 VRB5      29.63S                  
PLYMOUTH       CLOUDY    36  27  69 W6        29.63S WCI  31          
TAUNTON        CLOUDY    37  27  67 W3        29.64S                  
NEW BEDFORD    CLOUDY    37  27  67 W6        29.64S                  
$$

MAZALL-280700-
CAPE COD AND THE ISLANDS
  
CITY           SKY/WX    TMP DP  RH WIND       PRES   REMARKS
FALMOUTH       CLOUDY    37  28  70 NW8       29.63S WCI  31          
HYANNIS        CLOUDY    39  27  62 NW7       29.61S                  
CHATHAM        CLOUDY    39  29  67 NW8       29.62S                  
PROVINCETOWN   CLOUDY    40  32  73 NW15      29.63R WCI  32          
NANTUCKET      CLOUDY    40  31  70 NW9       29.63S                  
MARTHAS VNYRD  CLOUDY    39  29  67 NW8       29.64S                  
$$
 
MAZALL-280700-
CENTRAL AND WESTERN MASSACHUSETTS
  
CITY           SKY/WX    TMP DP  RH WIND       PRES   REMARKS
WORCESTER      CLOUDY    34  24  67 W12       29.61F WCI  25          
6HR MIN TEMP:  34; 6HR MAX TEMP:  36;                                

FITCHBURG      CLOUDY    36  26  67 NW7       29.64S WCI  30          
ORANGE         CLOUDY    37  24  59 NW3       29.66S                  
SPRINGFIELD    CLOUDY    35  26  69 W6        29.66S WCI  30          
WESTFIELD      CLOUDY    36  26  67 W9        29.67S WCI  29          
NORTH ADAMS    CLOUDY    34  26  72 W6        29.68R WCI  29          
PITTSFIELD     CLOUDY    32  26  78 W9        29.65S WCI  24          
$$
 
RIZALL-280700-
RHODE ISLAND
  
CITY           SKY/WX    TMP DP  RH WIND       PRES   REMARKS
PROVIDENCE     CLOUDY    38  27  64 W7        29.66S                  
6HR MIN TEMP:  38; 6HR MAX TEMP:  41;                                

NEWPORT        CLOUDY    39  27  62 NW7       29.65S                  
BLOCK ISLAND   CLOUDY    39  27  62 NW9G18    29.68S                  
SMITHFIELD     CLOUDY    36  27  69 W7        29.64S WCI  30          
WESTERLY       MOCLDY    41  25  53 VRB6      29.67F                  
$$
 
CTZALL-280700-
CONNECTICUT
  
CITY           SKY/WX    TMP DP  RH WIND       PRES   REMARKS
BRADLEY INTL   MOCLDY    36  26  67 W12       29.68S WCI  28          
6HR MIN TEMP:  35; 6HR MAX TEMP:  39;                                

HARTFORD       CLOUDY    39  26  59 W9        29.69S                  
BRIDGEPORT     CLOUDY    40  28  62 NW9       29.71F                  
DANBURY        CLOUDY    36  26  67 W6        29.72S WCI  31          
GROTON         CLOUDY    38  27  64 NW8       29.68S                  
NEW HAVEN      CLOUDY    40  31  70 NW5       29.70F                  
CHESTER        NOT AVBL                                               
MERIDEN        CLOUDY    38  26  62 NW5       29.70F                  
WILLIMANTIC    CLOUDY    37  26  64 W5        29.68S                  
OXFORD         CLOUDY    35  27  72 NW3       29.69F                  
$$

MEZ002-015-021-024-NHZ003-005-008-011-012-014-VTZ005-008-280700-
NORTHERN NEW ENGLAND
  
CITY           SKY/WX    TMP DP  RH WIND       PRES   REMARKS
PORTLAND ME    CLOUDY    35  26  69 W3        29.60R                  
6HR MIN TEMP:  33; 6HR MAX TEMP:  39;                                

BANGOR ME      CLOUDY    32  27  81 NW5       29.57S WCI  27          
CONCORD NH     CLOUDY    35  26  69 NW5       29.62S WCI  31          
MANCHESTER NH  CLOUDY    38  26  62 W3        29.61S                  
NASHUA NH      MOCLDY    36  29  75 W5        29.64S                  
PORTSMOUTH NH  CLOUDY    37  27  65 W8        29.60R WCI  31          
JAFFREY NH     CLOUDY    35  25  66 W6        29.62S WCI  30          
KEENE NH       CLOUDY    36  26  67 CALM      29.65S                  
BURLINGTON VT  CLOUDY    32  30  92 NW12      29.69S FOG     WCI  23  
MT. WASHINGTON SNOW       9   9 100 NW48G54     N/A  VSB 1/16WCI -19  
$$

NYZ052-076-280700-
EASTERN NEW YORK
  
CITY           SKY/WX    TMP DP  RH WIND       PRES   REMARKS
ALBANY         CLOUDY    37  26  64 W8        29.71S WCI  31          
6HR MIN TEMP:  36; 6HR MAX TEMP:  38;                                

NEW YORK CITY  CLOUDY    39  24  55 NW17      29.74S WCI  30          
6HR MIN TEMP:  39; 6HR MAX TEMP:  43;                                

$$
 
ANZALL-280700-
MARINE OBSERVATIONS
  
STATION/POSITION TIME  TEMP    WIND        PRES    VSBY  WAVE
                       AIR SEA DIR/SP/G                  HT/PER
                 (UTC) (F)     (DEG/KT/KT) (MB)    (MI)  (FT/S)
BOSTON BUOY      0550   40 43  280/ 16/ 17 1002.3R         2/11
BUZZARDS BAY     0500   40     300/ 18/ 20 1004.4R
NANTUCKET SOUND  0540                        N/A           1/ 2
MASS BAY-STELLWA 0504   40 40  320/ 16/ 17 1000.7R  1 7/8
ISLE OF SHOALS   0600   39     280/ 14/ 16 1002.1R
S OF BLOCK IS    0600      44                N/A           5/ 6
$$

......................KEY.........................
  SKY/WX - SKY CONDITION/PRESENT WEATHER
  TMP    - TEMPERATURE IN FAHRENHEIT
  DWPT   - DEWPOINT IN FAHRENHEIT
  RH     - RELATIVE HUMIDITY IN PERCENT
  WIND   - DIRECTION AND SPEED IN MPH
  PRES   - MEAN SEA LEVEL PRESSURE IN INCHES OF HG
  WCI    - WIND CHILL INDEX
  VSB    - VISIBILITY IN MILES
  HX     - HEAT INDEX
  TC     - TEMPERATURE IN CELSIUS
  VRB    - VARIABLE WIND DIRECTION
  N/A    - NOT AVAILABLE
  
      

Other recent Regional Weather Roundups

Tue Jan 28, 4:10am

Tue Jan 28, 4:00am

Tue Jan 28, 3:10am

Tue Jan 28, 3:01am

Tue Jan 28, 2:10am

Tue Jan 28, 2:00am

Tue Jan 28, 1:00am

Tue Jan 28, 12:10am

Tue Jan 28, 12:01am

Mon Jan 27, 11:10pm

Mon Jan 27, 11:00pm

Mon Jan 27, 10:10pm

Mon Jan 27, 10:00pm

Mon Jan 27, 9:10pm

Mon Jan 27, 9:00pm

Mon Jan 27, 8:10pm

Mon Jan 27, 8:01pm

Mon Jan 27, 7:10pm

Mon Jan 27, 7:00pm

Mon Jan 27, 6:10pm

Mon Jan 27, 6:00pm

Mon Jan 27, 5:10pm

Mon Jan 27, 5:00pm

Mon Jan 27, 4:10pm

Mon Jan 27, 4:00pm

Mon Jan 27, 3:10pm

Mon Jan 27, 3:00pm

Mon Jan 27, 2:10pm

Mon Jan 27, 2:00pm

Mon Jan 27, 1:10pm

Mon Jan 27, 1:00pm

Mon Jan 27, 12:10pm

Mon Jan 27, 12:00pm

Mon Jan 27, 11:10am

Mon Jan 27, 11:01am

Mon Jan 27, 10:10am

Mon Jan 27, 10:00am

Mon Jan 27, 9:10am

Mon Jan 27, 9:00am

Mon Jan 27, 8:10am

Mon Jan 27, 8:00am

Mon Jan 27, 7:10am

Mon Jan 27, 7:00am

Mon Jan 27, 6:10am

Mon Jan 27, 6:00am

Mon Jan 27, 5:10am

Mon Jan 27, 5:00am

Mon Jan 27, 4:10am

Mon Jan 27, 4:01am

Mon Jan 27, 3:10am

Mon Jan 27, 3:00am

Mon Jan 27, 2:10am

Mon Jan 27, 2:00am

Mon Jan 27, 1:10am

Mon Jan 27, 1:00am

Mon Jan 27, 12:10am

Mon Jan 27, 12:00am

Sun Jan 26, 11:10pm

Sun Jan 26, 11:00pm

Sun Jan 26, 10:10pm

Sun Jan 26, 10:00pm

Sun Jan 26, 9:10pm

Sun Jan 26, 9:01pm

Sun Jan 26, 8:10pm

Sun Jan 26, 8:00pm

Sun Jan 26, 7:10pm

Sun Jan 26, 7:00pm

Sun Jan 26, 6:10pm

Sun Jan 26, 6:01pm

Sun Jan 26, 5:10pm

Sun Jan 26, 5:01pm

Sun Jan 26, 4:10pm

Sun Jan 26, 4:00pm

Sun Jan 26, 3:10pm

Sun Jan 26, 3:01pm

Sun Jan 26, 2:10pm

Sun Jan 26, 2:01pm

Sun Jan 26, 1:10pm

Sun Jan 26, 1:00pm

Sun Jan 26, 12:10pm

Sun Jan 26, 12:00pm

Sun Jan 26, 11:10am

Sun Jan 26, 11:01am

Sun Jan 26, 10:10am

Sun Jan 26, 10:01am

Sun Jan 26, 9:10am

Sun Jan 26, 9:00am

Sun Jan 26, 8:10am

Sun Jan 26, 8:00am

Sun Jan 26, 7:10am

Sun Jan 26, 7:00am

Sun Jan 26, 6:10am

Sun Jan 26, 6:00am

Sun Jan 26, 5:10am

Sun Jan 26, 5:00am

Sun Jan 26, 4:10am

Sun Jan 26, 4:01am

Sun Jan 26, 3:10am

Sun Jan 26, 3:01am

Sun Jan 26, 2:10am

Sun Jan 26, 2:00am

Sun Jan 26, 1:10am

Sun Jan 26, 1:00am

Sun Jan 26, 12:10am

Sun Jan 26, 12:00am

Sat Jan 25, 11:10pm

Sat Jan 25, 11:00pm

Sat Jan 25, 10:10pm

Sat Jan 25, 10:01pm

Sat Jan 25, 9:10pm

Sat Jan 25, 9:01pm

Sat Jan 25, 8:10pm

Sat Jan 25, 8:01pm

Sat Jan 25, 7:10pm

Sat Jan 25, 7:01pm

Sat Jan 25, 6:10pm

Sat Jan 25, 6:01pm

Sat Jan 25, 5:10pm

Sat Jan 25, 5:01pm

Sat Jan 25, 4:10pm

Sat Jan 25, 4:00pm

Sat Jan 25, 3:10pm

Sat Jan 25, 3:01pm

Sat Jan 25, 2:10pm

Sat Jan 25, 2:00pm

Sat Jan 25, 1:10pm

Sat Jan 25, 1:00pm

Sat Jan 25, 12:10pm

Sat Jan 25, 12:00pm

Sat Jan 25, 11:10am

Sat Jan 25, 11:00am

Sat Jan 25, 10:10am

Sat Jan 25, 10:00am

Sat Jan 25, 9:10am

Sat Jan 25, 9:00am

Sat Jan 25, 8:10am

Sat Jan 25, 8:01am

Sat Jan 25, 7:10am

Sat Jan 25, 7:00am

Sat Jan 25, 6:10am

Sat Jan 25, 6:00am

Sat Jan 25, 5:10am

Sat Jan 25, 5:00am

Meta data:

ID: 958ca13d-d3b6-4cf5-b738-0744ba3dbd2e
Link: https://api.weather.gov/products/958ca13d-d3b6-4cf5-b738-0744ba3dbd2e